Weather History for Nebraska City, NE

Change the Weather History Date:

Tuesday, February 25, 2014

  Actual Average (KSDA) Record (KSDA)
Temperature  
Mean Temperature 18 °F -  
Max Temperature 23 °F 41 °F 65 °F (1981)
Min Temperature 11 °F 21 °F -5 °F (2003)
Degree Days  
Heating Degree Days 48    
Moisture  
Dew Point 8 °F    
Average Humidity 73    
Maximum Humidity 99    
Minimum Humidity 57    
Precipitation  
Precipitation 0.00 in - - ()
Sea Level Pressure  
Sea Level Pressure 30.39 in    
Wind  
Wind Speed 11 mph (North)    
Max Wind Speed 21 mph    
Max Gust Speed 26 mph    
Visibility 9 miles    
Events Snow    
Averages and records for this station are not official NWS values.
T = Trace of Precipitation, MM = Missing Value Source: NWS Daily Summary

Daily Weather History Graph

Daily Weather History Graph

Search for Another Location

Airport:

Trip Planner

Search our weather history database for the weather conditions in past years. The results will help you decide how hot, cold, wet, or windy it might be!

Date:

Astronomy

Feb. 25, 2014 Rise Set
Actual Time 7:03 AM CST 6:10 PM CST
Civil Twilight 6:35 AM CST 6:37 PM CST
Nautical Twilight 6:04 AM CST 7:09 PM CST
Astronomical Twilight 5:32 AM CST 7:41 PM CST
Moon 3:59 AM CST (2/25) 2:16 PM CST (2/25)
Length of Visible Light 12h 02m
Length of Day
11h 07m
Waning Crescent, 18% of the Moon is Illuminated
Feb 25
Waning Crescent
Mar 1
New
Mar 8
First Quarter
Mar 16
Full
Mar 23
Last Quarter

Hourly Weather History & Observations

Time (CST) Temp. Windchill Dew Point Humidity Pressure Visibility Wind Dir Wind Speed Gust Speed Precip Events Conditions
12:15 AM 23.5 °F 15.4 °F 21.2 °F 91% 30.29 in 10.0 mi NNE 6.9 mph - N/A   Clear
12:35 AM 23.2 °F 15.0 °F 21.2 °F 92% 30.31 in 10.0 mi North 6.9 mph - N/A   Clear
12:55 AM 22.3 °F 13.9 °F 20.8 °F 94% 30.30 in 10.0 mi NNE 6.9 mph - N/A   Clear
1:15 AM 22.1 °F 13.7 °F 21.4 °F 97% 30.31 in 10.0 mi NNE 6.9 mph - N/A   Clear
1:30 AM 22.1 °F 15.9 °F 21.6 °F 98% 30.30 in 10.0 mi NE 4.6 mph - N/A   Scattered Clouds
1:55 AM 22.5 °F 15.1 °F 22.1 °F 99% 30.32 in 7.0 mi NNE 5.8 mph - N/A Snow Light Snow
2:15 AM 22.5 °F 11.7 °F 21.7 °F 97% 30.32 in 7.0 mi NNE 10.4 mph - N/A Snow Light Snow
3:55 AM 21.2 °F 8.9 °F 19.2 °F 92% 30.33 in 10.0 mi NNE 12.7 mph - N/A   Overcast
4:15 AM 20.1 °F 6.9 °F 16.9 °F 87% 30.33 in 10.0 mi NNE 13.8 mph 20.7 mph N/A   Overcast
4:35 AM 19.2 °F 5.3 °F 16.0 °F 87% 30.33 in 10.0 mi NNE 15.0 mph - N/A   Overcast
4:55 AM 18.5 °F 4.3 °F 15.4 °F 88% 30.34 in 10.0 mi NNE 15.0 mph - N/A   Overcast
5:15 AM 17.4 °F 2.4 °F 13.8 °F 86% 30.34 in 10.0 mi NNE 16.1 mph 24.2 mph N/A   Overcast
5:35 AM 16.7 °F 3.2 °F 13.1 °F 86% 30.35 in 10.0 mi NNE 12.7 mph - N/A   Overcast
5:55 AM 16.0 °F 0.6 °F 12.0 °F 84% 30.35 in 10.0 mi NNE 16.1 mph - N/A   Overcast
6:15 AM 15.8 °F -0.2 °F 11.7 °F 84% 30.35 in 10.0 mi NNE 17.3 mph - N/A   Overcast
6:35 AM 15.4 °F 0.4 °F 11.3 °F 84% 30.36 in 10.0 mi NNE 15.0 mph - N/A   Overcast
6:55 AM 14.5 °F 1.1 °F 9.7 °F 81% 30.36 in 10.0 mi NE 11.5 mph 18.4 mph N/A   Overcast
7:15 AM 14.4 °F 1.6 °F 10.4 °F 84% 30.36 in 5.0 mi NNE 10.4 mph - N/A Snow Light Snow
7:35 AM 14.0 °F 0.5 °F 8.6 °F 79% 30.37 in 7.0 mi North 11.5 mph - N/A   Overcast
7:55 AM 13.8 °F -1.7 °F 8.2 °F 78% 30.39 in 7.0 mi North 15.0 mph 20.7 mph N/A   Overcast
8:15 AM 13.6 °F -0.7 °F 8.4 °F 80% 30.38 in 4.0 mi North 12.7 mph - N/A Snow Light Snow
8:35 AM 13.6 °F 1.6 °F 8.6 °F 80% 30.38 in 7.0 mi North 9.2 mph - N/A   Overcast
8:55 AM 13.3 °F -1.1 °F 8.2 °F 80% 30.38 in 5.0 mi North 12.7 mph - N/A Snow Light Snow
9:15 AM 13.5 °F -0.2 °F 8.6 °F 81% 30.38 in 3.0 mi NE 11.5 mph 16.1 mph N/A Snow Light Snow
9:35 AM 13.6 °F 0.7 °F 8.8 °F 81% 30.39 in 3.0 mi North 10.4 mph - N/A Snow Light Snow
9:55 AM 14.0 °F 0.5 °F 8.6 °F 79% 30.40 in 7.0 mi North 11.5 mph - N/A Snow Light Snow
10:15 AM 14.0 °F -0.2 °F 7.0 °F 74% 30.41 in 10.0 mi NNE 12.7 mph 19.6 mph N/A   Overcast
10:35 AM 14.0 °F 0.5 °F 6.6 °F 72% 30.42 in 10.0 mi NNE 11.5 mph - N/A   Overcast
10:50 AM 14.0 °F -0.2 °F 3.4 °F 63% 30.43 in 10.0 mi NNE 12.7 mph - N/A   Overcast
11:20 AM 13.5 °F 1.3 °F 1.9 °F 60% 30.44 in 10.0 mi NNE 9.2 mph - N/A   Overcast
11:35 AM 13.5 °F -0.2 °F 1.4 °F 59% 30.45 in 10.0 mi NNE 11.5 mph - N/A   Overcast
11:55 AM 13.6 °F 0.7 °F 1.4 °F 58% 30.45 in 10.0 mi North 10.4 mph 17.3 mph N/A   Overcast
12:15 PM 13.1 °F 1.8 °F 2.5 °F 63% 30.44 in 5.0 mi North 8.1 mph - N/A Snow Light Snow
12:35 PM 13.6 °F -0.7 °F 2.3 °F 61% 30.44 in 10.0 mi North 12.7 mph - N/A   Overcast
12:55 PM 13.8 °F 1.8 °F 1.9 °F 59% 30.43 in 7.0 mi North 9.2 mph - N/A   Overcast
1:15 PM 14.0 °F 2.9 °F 3.0 °F 62% 30.42 in 10.0 mi North 8.1 mph - N/A   Overcast
1:35 PM 14.0 °F 1.2 °F 2.8 °F 61% 30.40 in 7.0 mi NNW 10.4 mph - N/A Snow Light Snow
1:55 PM 13.8 °F 1.0 °F 3.9 °F 65% 30.40 in 5.0 mi North 10.4 mph - N/A Snow Light Snow
2:15 PM 13.1 °F 0.1 °F 6.3 °F 74% 30.39 in 2.0 mi North 10.4 mph - N/A Snow Light Snow
2:35 PM 12.9 °F -0.2 °F 6.8 °F 77% 30.39 in 2.5 mi North 10.4 mph - N/A Snow Light Snow
3:00 PM 12.6 °F -2.7 °F 6.6 °F 77% 30.39 in 2.0 mi North 13.8 mph - N/A Snow Light Snow
3:15 PM 12.9 °F -0.2 °F 7.5 °F 79% 30.38 in 4.0 mi NNW 10.4 mph - N/A Snow Light Snow
3:35 PM 13.6 °F 1.6 °F 5.7 °F 71% 30.37 in 10.0 mi NNW 9.2 mph - N/A   Overcast
3:55 PM 14.0 °F 1.2 °F 5.4 °F 69% 30.38 in 10.0 mi NNW 10.4 mph - N/A   Mostly Cloudy
4:15 PM 15.1 °F 1.8 °F 5.9 °F 67% 30.37 in 10.0 mi North 11.5 mph - N/A   Overcast
4:35 PM 15.6 °F 2.5 °F 5.7 °F 65% 30.36 in 10.0 mi NNW 11.5 mph - N/A   Overcast
4:55 PM 15.6 °F 3.2 °F 5.7 °F 65% 30.36 in 10.0 mi NNW 10.4 mph - N/A   Overcast
5:15 PM 15.8 °F 3.4 °F 6.3 °F 66% 30.37 in 10.0 mi NNW 10.4 mph - N/A   Overcast
5:35 PM 16.2 °F 3.2 °F 6.3 °F 65% 30.37 in 10.0 mi NNW 11.5 mph - N/A   Overcast
5:55 PM 16.2 °F 3.9 °F 7.2 °F 68% 30.38 in 10.0 mi NNW 10.4 mph 16.1 mph N/A   Overcast
6:15 PM 16.3 °F 2.1 °F 7.2 °F 67% 30.38 in 10.0 mi NNW 13.8 mph - N/A   Scattered Clouds
6:35 PM 16.3 °F 4.1 °F 7.9 °F 69% 30.40 in 10.0 mi NW 10.4 mph - N/A   Clear
6:55 PM 16.3 °F 3.4 °F 6.1 °F 64% 30.41 in 10.0 mi NNW 11.5 mph - N/A   Scattered Clouds
7:15 PM 16.0 °F 2.3 °F 5.2 °F 62% 30.42 in 10.0 mi NW 12.7 mph - N/A   Scattered Clouds
7:35 PM 15.8 °F 1.4 °F 4.8 °F 62% 30.43 in 10.0 mi NNW 13.8 mph 18.4 mph N/A   Scattered Clouds
7:55 PM 15.4 °F -0.6 °F 3.2 °F 59% 30.43 in 10.0 mi NNW 17.3 mph 23.0 mph N/A   Mostly Cloudy
8:15 PM 15.3 °F -2.2 °F 2.8 °F 58% 30.44 in 10.0 mi NNW 20.7 mph 25.3 mph N/A   Mostly Cloudy
8:35 PM 14.5 °F -2.3 °F 1.9 °F 57% 30.45 in 10.0 mi North 18.4 mph 26.5 mph N/A   Scattered Clouds
8:55 PM 14.2 °F 0.0 °F 2.8 °F 61% 30.46 in 10.0 mi North 12.7 mph 18.4 mph N/A   Clear
9:15 PM 14.4 °F -3.0 °F 3.6 °F 62% 30.46 in 10.0 mi NNW 19.6 mph 26.5 mph N/A   Clear
9:35 PM 14.4 °F -1.5 °F 3.4 °F 62% 30.47 in 10.0 mi North 16.1 mph 23.0 mph N/A   Clear
9:55 PM 14.0 °F -2.5 °F 2.7 °F 61% 30.48 in 10.0 mi NNW 17.3 mph 24.2 mph N/A   Clear
10:15 PM 13.6 °F -1.9 °F 3.0 °F 63% 30.48 in 10.0 mi North 15.0 mph 23.0 mph N/A   Clear
10:35 PM 13.1 °F -0.7 °F 3.2 °F 65% 30.48 in 10.0 mi North 11.5 mph - N/A   Clear
10:55 PM 13.1 °F -2.0 °F 3.0 °F 64% 30.48 in 10.0 mi North 13.8 mph 17.3 mph N/A   Clear
11:15 PM 12.7 °F 0.4 °F 2.5 °F 64% 30.49 in 10.0 mi North 9.2 mph 17.3 mph N/A   Clear
11:35 PM 12.0 °F -1.3 °F 2.8 °F 67% 30.48 in 10.0 mi NNW 10.4 mph - N/A   Clear
11:55 PM 11.1 °F 0.4 °F 2.1 °F 67% 30.48 in 10.0 mi NNW 6.9 mph - N/A   Clear